User: anonymous   Login
Location: Haulchin
(50.3172°N, 3.4360°E)
Time: 19:21:52
(UTC+00:00)
Language:

ALOS - Orbit

View from above orbital plane
View from above orbital plane
View from above satellite
View from above satellite

Ground track
Ground track

The orbit data is extracted from the following two-line orbital elements,

1 28931U 06002A   24199.60008778  .00004476  00000-0  82528-3 0  9991
2 28931  98.0371 152.0147 0002440  73.2380 286.9092 14.65998074985434
Epoch (UTC): 17 July 2024 14:24:07
Eccentricity: 0.0002440
inclination: 98.0371°
perigee height: 672 km
apogee height: 675 km
right ascension of ascending node: 152.0147°
argument of perigee: 73.2380°
revolutions per day: 14.65998074
mean anomaly at epoch: 286.9092°
orbit number at epoch: 98543

The dashed part of the orbit path shows where the satellite is in the earth's shadow,  

DLR